Simultaneous Nadir Overpasses (SNOs) Predictions

Prediction of SNOs between GOES-16 and METOP-B Satellite Orbit:

Table of predicted SNOs for the next 14.0 days since TLE Epoch: 3/19/2022
Index Date Time (GOES-16) GOES-16 Lat,Lon METOP-B Lat,Lon Distance(km) Time Diff (sec)
1 03/20/2022 14:37:31 0.06, -75.24 0.33, -76.46 139.95 80
2 03/21/2022 14:14:11 0.05, -75.24 -0.81, -71.47 429.52 80
3 03/23/2022 02:35:50 -0.05, -75.22 -0.26, -76.06 95.88 80
4 03/24/2022 02:12:30 -0.05, -75.23 0.88, -71.07 473.51 80
5 03/25/2022 14:34:01 0.05, -75.25 0.13, -75.64 43.44 80
6 03/28/2022 02:29:40 -0.04, -75.25 -0.05, -75.23 1.87 80
7 03/30/2022 14:30:32 0.04, -75.30 -0.10, -74.81 56.75 80
8 04/01/2022 02:49:30 -0.04, -75.31 -0.96, -79.40 466.13 80
